This is the latest recevied weather packets stored in our database for station/object W4KAB. If no packets are shown the sender has not sent any weather packets the latest 10 day(s).
| Time | Temp. | Humidity | Pressure | Rain* | Wind** | Luminosity | Snow |
|---|---|---|---|---|---|---|---|
| 1777996776 | 23.33° C | 45% | 1018 hPa | 0 mm | - | 499 W/m² | - |
| 1777996473 | 23.33° C | 46% | 1017.7 hPa | 0 mm | - | 500 W/m² | - |
| 1777996170 | 23.33° C | 44% | 1017.8 hPa | 0 mm | - | 506 W/m² | - |
| 1777995866 | 23.33° C | 43% | 1017.8 hPa | 0 mm | - | 557 W/m² | - |
| 1777995562 | 23.33° C | 43% | 1017.8 hPa | 0 mm | - | 627 W/m² | - |
| 1777995260 | 23.33° C | 46% | 1017.7 hPa | 0 mm | - | 623 W/m² | - |
| 1777994956 | 22.78° C | 47% | 1017.6 hPa | 0 mm | - | 670 W/m² | - |
| 1777994648 | 22.78° C | 45% | 1017.8 hPa | 0 mm | - | 712 W/m² | - |
| 1777994348 | 22.78° C | 45% | 1017.7 hPa | 0 mm | - | 703 W/m² | - |
| 1777994045 | 22.22° C | 48% | 1017.7 hPa | 0 mm | - | 714 W/m² | - |
| 1777993741 | 21.67° C | 45% | 1017.9 hPa | 0 mm | - | 749 W/m² | - |
| 1777993439 | 21.67° C | 48% | 1017.7 hPa | 0 mm | - | 447 W/m² | - |
| 1777993133 | 21.11° C | 49% | 1018.1 hPa | 0 mm | - | 52 W/m² | - |
| 1777992831 | 20.56° C | 50% | 1017.8 hPa | 0 mm | - | 44 W/m² | - |
| 1777992528 | 20° C | 57% | 1017.8 hPa | 0 mm | - | 65 W/m² | - |
| 1777992227 | 20° C | 60% | 1017.8 hPa | 0 mm | - | 39 W/m² | - |
| 1777991924 | 19.44° C | 61% | 1017.9 hPa | 0 mm | - | 59 W/m² | - |
| 1777991621 | 18.89° C | 61% | 1017.9 hPa | 0 mm | - | 38 W/m² | - |
| 1777991318 | 18.89° C | 62% | 1017.7 hPa | 0 mm | - | 39 W/m² | - |
| 1777991015 | 18.33° C | 63% | 1017.8 hPa | 0 mm | - | 41 W/m² | - |
| 1777990713 | 18.33° C | 63% | 1017.5 hPa | 0 mm | - | 44 W/m² | - |
| 1777990410 | 17.78° C | 64% | 1017.6 hPa | 0 mm | - | 48 W/m² | - |
| 1777989803 | 17.22° C | 65% | 1017.7 hPa | 0 mm | - | 46 W/m² | - |
| 1777989500 | 17.22° C | 66% | 1017.7 hPa | 0 mm | - | 39 W/m² | - |
| 1777989196 | 16.67° C | 67% | 1017.7 hPa | 0 mm | - | 41 W/m² | - |
* Rain latest hour (hover to see other rain measurements)
** Current wind speed in m/s (hover to see current wind gust speed)